When you browse on this site, cookies collect data to enhance your experience and personalize the content and advertising you see.
Visit our Privacy Policy to learn more. By continuing to use the site, you agree to this use of cookies and data.
  • In Hungary
  • List of Countries
  • For 7 days
  • Water Temperature
  • Satellite Maps
  • Weather Map
  • News
  • Weather Widgets
  • user-avatar
    Login

    Hourly Weather Ibarra

    Today, 10 December, Monday

    Time Temperature Precipitation Wind Pressure Humidity
    00:00 +13°C° 0 mm 1 mps 569 mmHg 84%
    01:00 +13°C° 0 mm 1 mps 569 mmHg 84%
    02:00 +13°C° 0.1 mm 1 mps 569 mmHg 84%
    03:00 +13°C° 0.1 mm 1 mps 569 mmHg 85%
    04:00 +13°C° 0.1 mm 1 mps 569 mmHg 85%
    05:00 +13°C° 0.1 mm 1 mps 569 mmHg 83%
    06:00 +14°C° 0.1 mm 2 mps 570 mmHg 82%
    07:00 +14°C° 0.1 mm 2 mps 570 mmHg 80%
    08:00 +16°C° 0.1 mm 2 mps 571 mmHg 75%
    09:00 +17°C° 0.1 mm 2 mps 572 mmHg 70%
    10:00 +19°C° 0.1 mm 2 mps 573 mmHg 65%
    11:00 +19°C° 0.6 mm 2 mps 572 mmHg 67%
    12:00 +19°C° 0.6 mm 2 mps 572 mmHg 69%
    13:00 +19°C° 0.6 mm 2 mps 572 mmHg 70%
    14:00 +18°C° 0.9 mm 2 mps 571 mmHg 71%
    15:00 +18°C° 0.9 mm 2 mps 571 mmHg 72%
    16:00 +18°C° 0.9 mm 2 mps 570 mmHg 73%
    17:00 +18°C° 0.7 mm 1 mps 570 mmHg 78%
    18:00 +16°C° 0.7 mm 1 mps 570 mmHg 83%
    19:00 +14°C° 0.7 mm 1 mps 569 mmHg 88%
    20:00 +14°C° 0.2 mm 1 mps 570 mmHg 87%
    21:00 +14°C° 0.2 mm 1 mps 570 mmHg 87%
    22:00 +14°C° 0.2 mm 1 mps 571 mmHg 86%
    23:00 +14°C° 0.1 mm 1 mps 570 mmHg 85%

    Tomorrow, 11 December, Tuesday

    Time Temperature Precipitation Wind Pressure Humidity
    00:00 +13°C° 0.1 mm 1 mps 570 mmHg 85%
    01:00 +13°C° 0.1 mm 1 mps 570 mmHg 84%
    02:00 +13°C° 0.2 mm 1 mps 570 mmHg 84%
    03:00 +13°C° 0.2 mm 1 mps 569 mmHg 84%
    04:00 +13°C° 0.2 mm 1 mps 569 mmHg 84%
    05:00 +13°C° 0.4 mm 1 mps 570 mmHg 83%
    06:00 +14°C° 0.4 mm 1 mps 570 mmHg 81%
    07:00 +14°C° 0.4 mm 1 mps 571 mmHg 80%
    08:00 +16°C° 0.6 mm 2 mps 572 mmHg 77%
    09:00 +17°C° 0.6 mm 2 mps 573 mmHg 73%
    10:00 +18°C° 0.6 mm 2 mps 573 mmHg 70%
    11:00 +18°C° 1.1 mm 2 mps 573 mmHg 71%
    12:00 +18°C° 1.1 mm 2 mps 572 mmHg 72%
    13:00 +18°C° 1.1 mm 2 mps 572 mmHg 74%
    14:00 +19°C° 1.3 mm 1 mps 571 mmHg 75%
    15:00 +18°C° 1.3 mm 1 mps 571 mmHg 76%
    16:00 +18°C° 1.3 mm 1 mps 570 mmHg 77%
    17:00 +16°C° 1.3 mm 1 mps 570 mmHg 80%
    18:00 +15°C° 1.3 mm 1 mps 570 mmHg 84%
    19:00 +14°C° 1.3 mm 1 mps 570 mmHg 88%
    20:00 +14°C° 0.9 mm 1 mps 571 mmHg 88%
    21:00 +14°C° 0.9 mm 1 mps 571 mmHg 87%
    22:00 +14°C° 0.9 mm 1 mps 571 mmHg 86%
    23:00 +14°C° 0.5 mm 1 mps 571 mmHg 86%

    Day after tomorrow, 12 December, Wednesday

    Time Temperature Precipitation Wind Pressure Humidity
    00:00 +14°C° 0.5 mm 1 mps 571 mmHg 86%
    01:00 +13°C° 0.5 mm 1 mps 570 mmHg 86%
    02:00 +13°C° 0.5 mm 1 mps 570 mmHg 86%
    03:00 +13°C° 0.5 mm 1 mps 570 mmHg 86%
    04:00 +13°C° 0.5 mm 1 mps 569 mmHg 86%
    05:00 +13°C° 0.3 mm 1 mps 570 mmHg 85%
    06:00 +14°C° 0.3 mm 1 mps 570 mmHg 84%
    07:00 +14°C° 0.3 mm 1 mps 571 mmHg 83%
    08:00 +15°C° 0.4 mm 1 mps 571 mmHg 80%
    09:00 +16°C° 0.4 mm 1 mps 572 mmHg 77%
    10:00 +17°C° 0.4 mm 2 mps 573 mmHg 74%
    11:00 +17°C° 0.8 mm 2 mps 572 mmHg 74%
    12:00 +18°C° 0.8 mm 2 mps 572 mmHg 74%
    13:00 +18°C° 0.8 mm 2 mps 571 mmHg 74%
    14:00 +18°C° 0.9 mm 2 mps 571 mmHg 74%
    15:00 +18°C° 0.9 mm 2 mps 570 mmHg 75%
    16:00 +18°C° 0.9 mm 1 mps 570 mmHg 75%
    17:00 +16°C° 0.9 mm 1 mps 570 mmHg 80%
    18:00 +15°C° 0.9 mm 1 mps 569 mmHg 85%
    19:00 +14°C° 0.9 mm 1 mps 569 mmHg 90%
    20:00 +14°C° 0.6 mm 1 mps 570 mmHg 90%
    21:00 +14°C° 0.6 mm 1 mps 570 mmHg 89%
    22:00 +14°C° 0.6 mm 1 mps 571 mmHg 89%
    23:00 +13°C° 0.6 mm 1 mps 570 mmHg 89%

    13 December, Thursday

    Time Temperature Precipitation Wind Pressure Humidity
    00:00 +13°C° 0.6 mm 1 mps 570 mmHg 89%
    01:00 +13°C° 0.6 mm 1 mps 569 mmHg 89%
    02:00 +13°C° 0.8 mm 1 mps 569 mmHg 89%
    03:00 +12°C° 0.8 mm 0 mps 569 mmHg 89%
    04:00 +12°C° 0.8 mm 0 mps 568 mmHg 89%
    05:00 +12°C° 0.8 mm 0 mps 569 mmHg 87%
    06:00 +13°C° 0.8 mm 0 mps 570 mmHg 85%
    07:00 +14°C° 0.8 mm 1 mps 570 mmHg 84%
    08:00 +15°C° 0.6 mm 1 mps 571 mmHg 80%
    09:00 +16°C° 0.6 mm 1 mps 572 mmHg 77%
    10:00 +18°C° 0.6 mm 1 mps 572 mmHg 74%
    11:00 +19°C° 1.1 mm 1 mps 572 mmHg 74%
    12:00 +19°C° 1.1 mm 1 mps 572 mmHg 74%
    13:00 +19°C° 1.1 mm 1 mps 571 mmHg 75%
    14:00 +19°C° 2.7 mm 1 mps 570 mmHg 76%
    15:00 +18°C° 2.7 mm 1 mps 570 mmHg 78%
    16:00 +18°C° 2.7 mm 1 mps 569 mmHg 79%
    17:00 +16°C° 4.3 mm 1 mps 569 mmHg 83%
    18:00 +15°C° 4.3 mm 1 mps 569 mmHg 87%
    19:00 +13°C° 4.3 mm 0 mps 569 mmHg 91%
    20:00 +13°C° 2.1 mm 0 mps 570 mmHg 91%
    21:00 +13°C° 2.1 mm 0 mps 570 mmHg 91%
    22:00 +13°C° 2.1 mm 0 mps 570 mmHg 90%
    23:00 +13°C° 1.9 mm 0 mps 570 mmHg 90%

    14 December, Friday

    Time Temperature Precipitation Wind Pressure Humidity
    00:00 +13°C° 1.9 mm 0 mps 570 mmHg 89%
    01:00 +13°C° 1.9 mm 0 mps 569 mmHg 89%
    02:00 +13°C° 2 mm 0 mps 569 mmHg 89%
    03:00 +13°C° 2 mm 0 mps 569 mmHg 88%
    04:00 +12°C° 2 mm 0 mps 569 mmHg 88%
    05:00 +13°C° 1.9 mm 0 mps 569 mmHg 87%
    06:00 +13°C° 1.9 mm 0 mps 570 mmHg 86%
    07:00 +13°C° 1.9 mm 0 mps 570 mmHg 85%
    08:00 +14°C° 1.5 mm 1 mps 570 mmHg 82%
    09:00 +15°C° 1.5 mm 1 mps 571 mmHg 80%
    10:00 +15°C° 1.5 mm 1 mps 572 mmHg 78%
    11:00 +16°C° 1.2 mm 1 mps 571 mmHg 78%
    12:00 +16°C° 1.2 mm 1 mps 571 mmHg 78%
    13:00 +16°C° 1.2 mm 0 mps 570 mmHg 77%
    14:00 +16°C° 1.1 mm 1 mps 570 mmHg 78%
    15:00 +16°C° 1.1 mm 1 mps 569 mmHg 79%
    16:00 +16°C° 1.1 mm 1 mps 569 mmHg 80%
    17:00 +16°C° 0.9 mm 1 mps 569 mmHg 83%
    18:00 +15°C° 0.9 mm 1 mps 569 mmHg 87%
    19:00 +14°C° 0.9 mm 1 mps 569 mmHg 90%
    20:00 +13°C° 1 mm 0 mps 570 mmHg 90%
    21:00 +13°C° 1 mm 0 mps 570 mmHg 90%
    22:00 +13°C° 1 mm 0 mps 571 mmHg 90%
    23:00 +13°C° 0.9 mm 0 mps 570 mmHg 90%

    15 December, Saturday

    Time Temperature Precipitation Wind Pressure Humidity
    00:00 +13°C° 0.9 mm 0 mps 570 mmHg 90%
    01:00 +12°C° 0.9 mm 0 mps 570 mmHg 90%
    02:00 +12°C° 0.6 mm 0 mps 569 mmHg 89%
    03:00 +12°C° 0.6 mm 0 mps 569 mmHg 88%
    04:00 +12°C° 0.6 mm 0 mps 569 mmHg 88%
    05:00 +13°C° 0.6 mm 1 mps 569 mmHg 87%
    06:00 +13°C° 0.6 mm 1 mps 570 mmHg 85%
    07:00 +14°C° 0.6 mm 1 mps 570 mmHg 84%
    08:00 +14°C° 0.9 mm 1 mps 571 mmHg 81%
    09:00 +15°C° 0.9 mm 1 mps 571 mmHg 78%
    10:00 +16°C° 0.9 mm 1 mps 572 mmHg 75%
    11:00 +18°C° 0.9 mm 1 mps 572 mmHg 75%
    12:00 +18°C° 0.9 mm 1 mps 571 mmHg 74%
    13:00 +19°C° 0.9 mm 1 mps 571 mmHg 73%
    14:00 +18°C° 1.2 mm 1 mps 570 mmHg 75%
    15:00 +18°C° 1.2 mm 1 mps 570 mmHg 78%
    16:00 +18°C° 1.2 mm 1 mps 569 mmHg 80%
    17:00 +16°C° 1.2 mm 1 mps 570 mmHg 83%
    18:00 +15°C° 1.2 mm 1 mps 570 mmHg 87%
    19:00 +13°C° 1.2 mm 0 mps 570 mmHg 90%
    20:00 +14°C° 1.2 mm 1 mps 570 mmHg 90%
    21:00 +14°C° 1.2 mm 1 mps 571 mmHg 90%
    22:00 +14°C° 1.2 mm 1 mps 571 mmHg 89%
    23:00 +14°C° 1.3 mm 1 mps 571 mmHg 89%
    Show more